User: anonymous   Login
Location: Caltech
(34.1382°N, 118.1253°W)
Time: 06:46:08
(UTC-07:00)
Language:

PAYLOAD A - Orbit

View from above orbital plane
View from above orbital plane
View from above satellite
View from above satellite

Ground track
Ground track

The orbit data is extracted from the following two-line orbital elements,

1 27840U 03031A   17177.97079320 -.00000022 +00000-0 +61997-5 0  9990
2 27840 098.2050 175.0574 0099564 089.5783 271.6813 14.38883343734624
Epoch (UTC): 26 June 2017 23:17:56
Eccentricity: 0.0099564
inclination: 98.2050°
perigee height: 691 km
apogee height: 833 km
right ascension of ascending node: 175.0574°
argument of perigee: 89.5783°
revolutions per day: 14.38883343
mean anomaly at epoch: 271.6813°
orbit number at epoch: 73462

The dashed part of the orbit path shows where the satellite is in the earth's shadow,  

DLR